FW8306 Weather Reports


time (UTC)temp
F
wind
direction
speed
knots
gust
knots
rain 1hr
in
rain 24hr
in
rain mn
in
humidity
%
barometer
mb
20260507171602 57 0.0 0.0 0.00 0.00 0.00 50 1019.0
20260507170051 57 0.0 0.0 0.00 0.00 0.00 51 1019.0
20260507164555 57 0.0 0.0 0.00 0.00 0.00 52 1018.8
20260507163049 58 0.0 0.0 0.00 0.00 0.00 51 1018.7
20260507161552 58 0.0 0.0 0.00 0.00 0.00 52 1018.6
20260507160059 58 0.0 0.0 0.00 0.00 0.00 51 1018.7
20260507154549 58 0.0 0.0 0.00 0.00 0.00 51 1018.6
20260507153055 58 0.0 0.0 0.00 0.00 0.00 51 1018.7
20260507151550 59 0.0 0.0 0.00 0.00 0.00 49 1018.6
20260507150054 59 0.0 0.0 0.00 0.00 0.00 48 1018.5
20260507144552 59 0.0 0.0 0.00 0.00 0.00 46 1018.4
20260507143049 58 0.0 0.0 0.00 0.00 0.00 47 1018.4
20260507141601 57 0.0 0.0 0.00 0.00 0.00 51 1018.4
20260507140108 56 0.0 0.0 0.00 0.00 0.00 54 1018.4
20260507134552 57 0.0 0.0 0.00 0.00 0.00 54 1018.4
20260507133052 56 0.0 0.0 0.00 0.00 0.00 54 1018.5
20260507131604 57 0.0 0.0 0.00 0.00 0.00 55 1018.5
20260507130106 56 0.0 0.0 0.00 0.00 0.00 58 1018.5
20260507124605 56 0.0 0.0 0.00 0.00 0.00 54 1018.4
20260507123100 57 0.0 0.0 0.00 0.00 0.00 58 1018.3
20260507121554 56 0.0 0.0 0.00 0.00 0.00 60 1018.2
20260507120053 57 0.0 0.0 0.00 0.00 0.00 58 1018.2
20260507114552 59 0.0 0.0 0.00 0.00 0.00 57 1018.1
20260507113054 60 0.0 0.0 0.00 0.00 0.00 58 1017.9
20260507111555 56 0.0 0.0 0.00 0.00 0.00 65 1018.1
20260507110048 54 0.0 0.0 0.00 0.00 0.00 66 1018.2
20260507104551 54 0.0 0.0 0.00 0.00 0.00 68 1018.1
20260507103053 54 0.0 0.0 0.00 0.00 0.00 69 1018.2
20260507101552 55 0.0 0.0 0.00 0.00 0.00 66 1018.1
20260507100057 57 0.0 0.0 0.00 0.00 0.00 57 1018.0
20260507094554 59 0.0 0.0 0.00 0.00 0.00 55 1017.7
20260507093055 58 0.0 0.0 0.00 0.00 0.00 55 1017.7
20260507091554 58 0.0 0.0 0.00 0.00 0.00 54 1017.8
20260507090054 56 0.0 0.0 0.00 0.00 0.00 58 1017.7
20260507084555 56 0.0 0.0 0.00 0.00 0.00 59 1017.8
20260507083057 55 0.0 0.0 0.00 0.00 0.00 60 1017.6
20260507081555 54 0.0 0.0 0.00 0.00 0.00 60 1017.6
20260507080134 55 0.0 0.0 0.00 0.00 0.00 60 1017.4
20260507074601 56 0.0 0.0 0.00 0.00 0.00 56 1017.4
20260507073101 54 0.0 0.0 0.00 0.00 0.00 58 1017.2
20260507071603 53 0.0 0.0 0.00 0.00 0.00 60 1017.3
20260507070054 50 0.0 0.0 0.00 0.00 0.00 68 1017.2
20260507064555 49 0.0 0.0 0.00 0.00 0.00 80 1017.1
20260507063055 48 0.0 0.0 0.00 0.00 0.00 84 1017.1
20260507061554 47 0.0 0.0 0.00 0.00 0.00 86 1017.0
20260507060053 46 0.0 0.0 0.00 0.00 0.00 87 1017.0
20260507054603 45 0.0 0.0 0.00 0.00 0.00 88 1016.9
20260507053056 44 0.0 0.0 0.00 0.00 0.00 89 1016.7
20260507051558 43 0.0 0.0 0.00 0.00 0.00 90 1016.7
20260507050057 42 0.0 0.0 0.00 0.00 0.00 91 1016.6
20260507044600 41 0.0 0.0 0.00 0.00 0.00 91 1016.4
20260507043052 41 0.0 0.0 0.00 0.00 0.00 90 1016.4
20260507041601 41 0.0 0.0 0.00 0.00 0.00 90 1016.4
20260507040105 40 0.0 0.0 0.00 0.00 0.00 90 1016.2
20260507034559 40 0.0 0.0 0.00 0.00 0.00 90 1016.1
20260507033051 40 0.0 0.0 0.00 0.00 0.00 90 1016.0
20260507031557 39 0.0 0.0 0.00 0.00 0.00 90 1015.9
20260507030056 39 0.0 0.0 0.00 0.00 0.00 89 1015.8
20260507024550 39 0.0 0.0 0.00 0.00 0.00 89 1015.6
20260507023048 40 0.0 0.0 0.00 0.00 0.00 89 1015.6
20260507021549 40 0.0 0.0 0.00 0.00 0.00 89 1015.5
20260507014600 40 0.0 0.0 0.00 0.00 0.00 89 1015.4
20260507013050 40 0.0 0.0 0.00 0.00 0.00 89 1015.3
20260507011602 41 0.0 0.0 0.00 0.00 0.00 88 1015.3
20260507010055 41 0.0 0.0 0.00 0.00 0.00 88 1015.1
20260507004556 41 0.0 0.0 0.00 0.00 0.00 87 1015.2
20260507003056 42 0.0 0.0 0.00 0.00 0.00 87 1015.2
20260507001613 42 0.0 0.0 0.00 0.00 0.00 86 1015.1
20260507000059 42 0.0 0.0 0.00 0.00 0.00 86 1015.1
20260506234602 42 0.0 0.0 0.00 0.00 0.00 86 1015.1
20260506233053 43 0.0 0.0 0.00 0.00 0.00 86 1015.1
20260506231550 43 0.0 0.0 0.00 0.00 0.00 86 1015.1
20260506230053 43 0.0 0.0 0.00 0.00 0.00 85 1015.1
20260506224552 43 0.0 0.0 0.00 0.00 0.00 85 1015.2
20260506223049 43 0.0 0.0 0.00 0.00 0.00 84 1015.0
20260506221555 44 0.0 0.0 0.00 0.00 0.00 84 1015.0
20260506214552 45 0.0 0.0 0.00 0.00 0.00 82 1014.7
20260506213100 45 0.0 0.0 0.00 0.00 0.00 82 1014.8
20260506211552 45 0.0 0.0 0.00 0.00 0.00 81 1014.8
20260506210100 45 0.0 0.0 0.00 0.00 0.00 80 1014.7
20260506204553 46 0.0 0.0 0.00 0.00 0.00 80 1014.6
20260506203139 46 0.0 0.0 0.00 0.00 0.00 79 1014.6
20260506201552 46 0.0 0.0 0.00 0.00 0.00 78 1014.6
20260506200053 46 0.0 0.0 0.00 0.00 0.00 77 1014.6
20260506194555 47 0.0 0.0 0.00 0.00 0.00 76 1014.4
20260506193052 47 0.0 0.0 0.00 0.00 0.00 75 1014.3
20260506191559 48 0.0 0.0 0.00 0.00 0.00 73 1014.1
20260506190056 48 0.0 0.0 0.00 0.00 0.00 71 1014.1
20260506184559 49 0.0 0.0 0.00 0.00 0.00 71 1013.8
20260506183058 50 0.0 0.0 0.00 0.00 0.00 71 1013.6
20260506181556 50 0.0 0.0 0.00 0.00 0.00 69 1013.4
20260506180055 51 0.0 0.0 0.00 0.00 0.00 68 1013.3
20260506174605 52 0.0 0.0 0.00 0.00 0.00 65 1013.1
20260506173058 52 0.0 0.0 0.00 0.00 0.00 62 1013.0